Showing default

QIANFAN-36, 61569

Orbit data source: Space-Track

QIANFAN-36, 61569 is a Chinese payload satellite in LEO that was launched on Tue, 15 Oct 2024 UTC via a CHANG ZHENG 6A launch vehicle from the Taiyaun Space Center, China (TSC). Payload-class satellites include a variety of spacecraft equipped with specific instruments for various scientific and technological missions. These include communications satellites like Starlink; space stations such as the ISS; scientific satellites like the Hubble; Earth observation satellites from companies like Planet Labs, Umbra, and HawkEye 360; GPS; miniature CubeSats for education and research; and military/defense satellites.

Loading next visibility...
Identifier
61569, 2024-185T
Orbit
LEO
Country
Flag of CNCN / PRC
Related business
Manufacturer
GESIH/SECM
Mission
Operational Commercial Communications
Bus & Motor
QIANFAN, Unknown motor
Mass
267 kg wet, ~267 kg dry
Launch date (UTC)
2024-10-15 (2 years ago)
Launch vehicle
CHANG ZHENG 6A
Launch site
Taiyaun Space Center, China (TSC)
Object type
Payload
Rocket body
Debris
Shape & HBR
Box + 1 Pan, 5.0 m
Radar Cross Section
13.200 m², Large (>1 m²)

Expand to show TLE details & history
Last TLE update: 11 hours ago

TLE from 11 hours ago
0 QIANFAN-36
1 61569U 24185T   26150.54847132  .00000125  00000-0  16283-3 0  9996
2 61569  88.9808  63.4444 0004074 279.8478  80.2216 13.55632520 90791
Epoch: 2026-05-30T13:09Z
TLE epoch observation values (Epoch: 2026-05-30T13:09:47.922Z)
Latitude
0.00003°
Longitude
-22.06819°
Altitude
1,054.054 km
Speed
7.325 km/s
True Right ascension
04h 13m 46s
True Declination
0° 00' 00"
Sunlit
Object was in daylight at epoch
Visualization orbit readout
Latitude
Unknown
Longitude
Unknown
Altitude
Unknown
Speed
Unknown
Apparent Right ascension
Unknown
Apparent Declination
Unknown
Sunlit
N/A
Visualization observer readout
Local Sidereal Time
09:28:09
Azimuth
Unknown
Elevation
Unknown
Doppler factor
Unknown
Orbital elements
Apogee altitude
1,051.677 km
Perigee altitude
1,045.626 km
Semi-major axis
7,426.788 km
Eccentricity
0.00041
Inclination
88.9808°
RAAN
63.4444°
Arg. of periapsis
279.8478°
True anomaly
80.26761°
Mean anomaly
80.2216°
Eccentric anomaly
80.2446°
Mean motion
3.39111 °/min
Orbital period
106.16 mins
BSTAR
0.00016283
Loading maneuver chart data...
Computing Atmospheric mass density...
Loading historical data...
Loading historical data...
Loading historical data...
Loading historical data...
Loading historical data...
Loading historical data...
Loading historical data...

Documentation

Showing up to 5 results
|